User: anonymous   Login
Location: Milton
(43.5183°N, 79.8775°W)
Time: 19:08:03
(UTC+00:00)
Language:

Altair 2 - Orbit

View from above orbital plane
View from above orbital plane
View from above satellite
View from above satellite

Ground track
Ground track

The orbit data is extracted from the following two-line orbital elements,

1   871U 64051B   24147.50912782  .00000289  00000-0  18560-3 0  9996
2   871  79.8931 178.0246 0086208 350.6109   9.3435 14.00028221 40111
Epoch (UTC): 26 May 2024 12:13:08
Eccentricity: 0.0086208
inclination: 79.8931°
perigee height: 831 km
apogee height: 956 km
right ascension of ascending node: 178.0246°
argument of perigee: 350.6109°
revolutions per day: 14.00028221
mean anomaly at epoch: 9.3435°
orbit number at epoch: 4011

The dashed part of the orbit path shows where the satellite is in the earth's shadow,  

DLR